Lid_Strength_Index
8 11 12 11 10 10 11 12 12 11 9 10 11 11 9 8 9 9 8 8 8 7 6 5 4 2 3 3 3 3 2 1 1 2 2 2 2 2 1 0 0 -0 0 1
10 12 9 8 8 9 10 11 12 11 9 11 11 11 9 8 9 9 8 8 7 7 6 5 4 4 5 5 5 5 4 3 2 1 1 2 2 1 1 1 1 1 1 1
11 9 7 8 9 9 10 11 11 11 10 10 11 13 11 9 9 8 8 7 7 7 7 6 5 5 4 3 3 3 4 4 3 3 3 3 3 2 2 1 1 1 1 -0
10 7 8 9 10 10 12 10 10 10 12 16 12 17 13 11 10 9 9 8 7 7 6 6 5 5 4 4 3 3 2 3 3 2 2 3 3 4 2 2 1 1 1 1
10 9 10 10 10 9 11 9 10 11 13 15 15 17 14 12 11 10 9 8 8 7 6 6 6 4 5 4 3 3 3 3 2 2 2 3 3 2 2 2 2 2 2 2
9 7 8 9 8 9 8 10 12 13 15 18 15 15 15 13 12 10 8 8 8 7 7 6 5 4 3 4 3 3 3 3 2 2 2 2 3 3 3 3 2 2 1 1
10 10 8 7 10 9 11 15 18 18 18 18 13 15 14 11 9 8 8 8 8 7 6 5 5 5 5 5 5 4 4 3 3 2 2 2 2 2 3 3 2 3 3 2
13 14 9 7 10 12 13 14 17 20 19 17 12 15 13 8 7 7 7 7 7 7 6 7 6 5 5 5 4 4 4 3 4 3 3 2 3 3 3 3 3 3 2 2
14 12 7 7 7 8 11 14 12 15 15 17 15 12 10 8 8 7 7 7 8 7 7 7 7 7 6 5 5 5 5 4 4 3 3 3 3 3 3 3 3 2 2 1
11 15 9 8 7 7 9 8 14 15 20 21 16 15 14 12 10 9 8 9 9 9 8 8 8 8 7 6 6 5 5 5 4 4 3 3 2 2 3 3 2 2 2 2
10 12 12 10 11 12 12 12 12 12 15 20 21 17 10 11 9 9 8 8 8 8 8 8 8 7 7 6 6 6 6 5 5 4 5 4 4 3 2 3 2 3 2 2
10 12 15 13 9 8 10 12 13 17 18 16 17 17 9 9 8 8 8 7 7 7 8 9 8 7 7 6 6 5 6 6 6 5 5 5 4 3 4 3 3 3 3 3
10 14 17 15 12 10 12 12 12 13 14 17 19 17 9 8 8 7 8 7 6 7 7 7 7 8 7 7 7 6 6 6 5 5 6 6 6 5 5 4 3 3 3 2
8 13 15 17 15 12 14 12 12 13 17 17 16 15 12 10 10 8 8 7 7 7 6 7 8 8 8 8 7 6 6 6 6 6 6 6 6 6 6 5 4 3 2 1
10 15 14 13 11 11 12 12 11 13 13 16 14 14 11 9 9 8 8 8 7 7 7 8 8 8 8 8 7 7 7 6 6 6 7 6 6 5 4 4 3 3 2 2
9 15 13 14 11 11 13 12 11 11 11 12 12 13 8 7 8 7 7 8 8 8 7 7 7 7 7 7 6 6 6 5 6 6 6 5 4 3 3 4 4 4 3 3
11 13 14 17 12 13 16 13 12 11 10 11 13 11 9 9 8 8 10 9 9 8 8 8 8 8 7 7 7 7 7 6 6 6 5 4 4 4 5 5 5 5 6 4
12 12 13 16 15 21 12 8 9 11 10 9 10 9 9 10 10 10 9 10 9 9 9 9 9 9 9 8 8 8 7 6 5 5 4 4 4 5 5 5 6 6 6 6
9 12 15 17 17 14 11 10 11 12 13 9 9 8 8 8 9 10 8 9 10 10 9 9 9 9 9 9 8 7 7 6 5 5 5 5 5 5 5 6 6 7 7 7
9 10 14 15 18 20 14 9 7 7 15 8 8 10 10 10 14 12 9 8 9 9 9 9 8 8 9 8 7 8 7 7 7 6 6 6 6 7 7 7 7 7 7 6
14 13 16 16 17 15 10 8 7 16 14 8 7 9 10 12 11 9 9 9 9 9 8 8 9 9 9 8 9 9 9 10 8 7 7 7 7 8 7 8 7 7 7 6
14 15 16 15 17 18 8 8 13 10 7 7 8 9 10 10 9 9 9 9 8 8 8 8 10 10 10 9 10 11 11 9 9 9 9 9 9 9 9 9 9 8 8 7
15 12 14 13 14 8 7 8 6 6 7 8 9 9 10 10 10 9 9 9 9 9 9 10 11 11 11 11 11 11 11 11 11 12 12 12 11 10 10 11 11 10 9 8
10 8 12 12 9 9 7 6 6 6 6 7 8 9 9 10 10 10 10 10 10 10 10 10 11 12 12 11 11 12 12 12 13 14 14 13 13 12 12 11 11 10 10 10
9 9 10 11 9 8 7 6 6 5 7 7 7 8 9 10 11 10 10 10 11 11 12 12 13 13 13 12 13 13 13 13 14 15 15 14 13 13 12 11 10 11 10 10
8 10 12 12 8 9 9 8 7 8 8 8 8 9 9 9 10 11 12 12 13 14 14 14 13 14 15 15 15 15 15 15 15 16 15 15 14 13 12 11 10 10 11 11